Location: Sebastopol
(38.4021°N, 122.8239°W)
Time: 15:08:08
(UTC+00:00)

COSMOS 2406 - Pass Details

Date: 29 October 2020
Orbit: 843 x 864 km, 71.0° (Epoch: 01 December)

Event Time Altitude Azimuth Distance (km) Brightness Sun altitude
Exits shadow 12:41:42 27° 330° (NNW) 1,563 4.3 -22.7°
Drops below altitude 10° 12:45:10 10° 3° (N) 2,470 5.7 -22.1°
Sets 12:47:55 0° 14° (NNE) 3,411 6.5 -21.5°
